Flag for Canada Weather past 2 weeks in Pond Inlet, Nunavut, Canada

Now
52 °F

Broken clouds.


Feels Like: 52 °F
Forecast: 41 / 47 °F
Wind: 2 mph from North

Location: Pond Inlet

Current Time: Aug 3, 2015 at 4:20:06 PM

Latest Report: Aug 3, 2015 at 3:00 PM


Visibility: 35 mi

Pressure: 30.26 "Hg

Humidity: 54%

Dew point: 36 °F

Location of Pond InletLocation

Historic Weather in Pond Inlet — Graph

°F

Pond Inlet temperature yesterday

Maximum temperature yesterday: 54 °F (at 2:00 PM)
Minimum temperature yesterday: 43 °F (at 2:00 AM)
Average temperature yesterday: 49 °F

Past Weeks' High & Low Weather Summary

 TemperatureHumidityPressure
High64 °F (Jul 23, 4:00 PM)93% (Jul 27, 4:00 AM)30.28 "Hg (Jul 27, 4:00 AM)
Low36 °F (Jul 27, 4:00 AM)38% (Aug 2, 9:00 AM)29.85 "Hg (Jul 27, 5:00 PM)
Average47 °F67%30.04 "Hg
* Reported Jul 19 3:00 PM — Aug 3 3:00 PM, Pond Inlet, Weather by CustomWeather, © 2015

Note: Actual official high and low records may vary slightly from our data, if they occured in-between our weather recording intervals... More about our weather records

Advertising

Pond Inlet weather history for previous 24 hours

 ConditionsComfort  
Time TempWeatherWind HumidityBarometerVisibility
3:00 PM
Mon, Aug 3
52 °FBroken clouds.2 mph54%30.26 "Hg35 mi
2:00 PM52 °FBroken clouds.2 mph47%30.26 "Hg35 mi
1:00 PM50 °FScattered clouds.3 mph58%30.27 "Hg40 mi
12:00 PM52 °FScattered clouds.5 mph50%30.27 "Hg40 mi
11:00 AM52 °FPassing clouds.3 mph50%30.28 "Hg40 mi
10:00 AM52 °FSunny.3 mph50%30.28 "Hg9 mi
9:00 AM48 °FSunny.3 mph62%30.28 "Hg9 mi
8:00 AM45 °FSunny.5 mph76%30.28 "Hg9 mi
7:00 AM43 °FSunny.No wind81%30.28 "Hg9 mi
6:00 AM41 °FSunny.2 mph87%30.27 "Hg9 mi
5:00 AM41 °FSunny.5 mph81%30.26 "Hg9 mi
4:00 AM45 °FSunny.2 mph57%30.24 "Hg9 mi
3:00 AM41 °FSunny.3 mph66%30.24 "Hg9 mi
2:00 AM45 °FSunny.3 mph57%30.23 "Hg9 mi
1:00 AM48 °FSunny.8 mph50%30.22 "Hg9 mi
12:00 AM50 °FSunny.6 mph50%30.22 "Hg9 mi
11:00 PM
Sun, Aug 2
50 °FSunny.10 mph50%30.21 "Hg9 mi
10:00 PM50 °FSunny.8 mph47%30.21 "Hg9 mi
9:00 PM52 °FSunny.9 mph47%30.21 "Hg9 mi
8:00 PM52 °FSunny.12 mph47%30.19 "Hg9 mi
7:00 PM52 °FSunny.20 mph44%30.19 "Hg9 mi
6:00 PM52 °FSunny.10 mph44%30.19 "Hg9 mi
5:00 PM50 °FSunny.16 mph43%30.18 "Hg9 mi
4:00 PM52 °FSunny.17 mph44%30.17 "Hg9 mi
Weather by CustomWeather, © 2015

See weather overviewHow to use our weather pages